VJT503 LIBP-EDDF

Flight info

Callsign VJT503
Flight time N/A
Altitude 18000
Route OTRET M736 ANC L612 CHI N503 VIC L613 SUXAN/N0453F400 L613 ARGAX Z170 SONOM T163 EMPAX EMPAX5B
Aircraft CL60/M-SADE3FGHIJ1J3J4J7P2RWXY/HB1D1

Departure

Time 2026-04-25 09:36
Airport Abruzzo Airport (LIBP)

Arrival

Time N/A
Airport Frankfurt Main Airport (EDDF)
Time Latitude Longitude Altitude Speed Heading
2026-04-25 09:08 42.43184 14.18870 44 ft 0 kts 172°
2026-04-25 09:32 42.43181 14.18869 44 ft 1 kts 201°
2026-04-25 09:32 42.43187 14.18851 44 ft 3 kts 325°
2026-04-25 09:32 42.43201 14.18838 44 ft 3 kts 318°
2026-04-25 09:33 42.43232 14.18808 44 ft 7 kts 345°
2026-04-25 09:33 42.43283 14.18764 44 ft 10 kts 276°
2026-04-25 09:33 42.43225 14.18684 44 ft 13 kts 217°
2026-04-25 09:33 42.43140 14.18595 45 ft 16 kts 217°
2026-04-25 09:34 42.43039 14.18492 45 ft 19 kts 217°
2026-04-25 09:34 42.42924 14.18373 46 ft 22 kts 218°
2026-04-25 09:34 42.42796 14.18239 47 ft 24 kts 217°
2026-04-25 09:34 42.42657 14.18094 49 ft 25 kts 217°
2026-04-25 09:35 42.42562 14.17998 51 ft 12 kts 224°
2026-04-25 09:35 42.42585 14.17906 51 ft 12 kts 328°
2026-04-25 09:35 42.42683 14.17902 50 ft 16 kts
2026-04-25 09:35 42.42798 14.17959 49 ft 20 kts 34°
2026-04-25 09:36 42.43161 14.18332 45 ft 119 kts 37°
2026-04-25 09:36 42.44004 14.19189 393 ft 174 kts 36°
2026-04-25 09:36 42.45020 14.20207 1300 ft 193 kts 37°
2026-04-25 09:36 42.46099 14.21335 2344 ft 206 kts 37°
2026-04-25 09:37 42.47253 14.22547 3225 ft 218 kts 37°
2026-04-25 09:37 42.48443 14.23800 4095 ft 220 kts 37°
2026-04-25 09:37 42.49697 14.25026 4965 ft 236 kts 26°
2026-04-25 09:37 42.51349 14.25408 5838 ft 260 kts 351°
2026-04-25 09:38 42.53012 14.24325 6746 ft 275 kts 319°
2026-04-25 09:38 42.54364 14.22508 7617 ft 278 kts 315°
2026-04-25 09:38 42.55698 14.20654 8486 ft 278 kts 315°
2026-04-25 09:38 42.57052 14.18794 9361 ft 280 kts 315°
2026-04-25 09:39 42.58431 14.16918 10245 ft 284 kts 316°
2026-04-25 09:39 42.59835 14.15028 11117 ft 298 kts 316°
2026-04-25 09:39 42.61354 14.13008 12021 ft 315 kts 316°
2026-04-25 09:40 42.63181 14.10612 12973 ft 326 kts 317°
2026-04-25 09:40 42.64237 14.09244 13539 ft 328 kts 317°
2026-04-25 09:40 42.65890 14.07139 14431 ft 333 kts 318°
2026-04-25 09:40 42.67610 14.05001 15315 ft 338 kts 318°
2026-04-25 09:41 42.69379 14.02911 16191 ft 341 kts 325°
2026-04-25 09:41 42.71463 14.01389 17057 ft 344 kts 336°
2026-04-25 09:41 42.73637 14.00069 17943 ft 349 kts 336°
2026-04-25 09:41 42.75847 13.98715 18832 ft 354 kts 336°
2026-04-25 09:42 42.78093 13.97337 19700 ft 357 kts 336°
2026-04-25 09:42 42.80362 13.95942 20601 ft 360 kts 336°
2026-04-25 09:42 42.82652 13.94534 21471 ft 364 kts 336°
2026-04-25 09:42 42.84963 13.93112 22320 ft 368 kts 336°
2026-04-25 09:43 42.87308 13.91667 23125 ft 373 kts 335°
2026-04-25 09:43 42.89668 13.90211 23912 ft 378 kts 336°
2026-04-25 09:43 42.92090 13.88716 24665 ft 382 kts 336°
2026-04-25 09:43 42.94511 13.87220 25386 ft 387 kts 336°
2026-04-25 09:44 42.96962 13.85704 26039 ft 392 kts 336°
2026-04-25 09:44 42.99486 13.84141 26700 ft 397 kts 336°
2026-04-25 09:44 43.02011 13.82577 27340 ft 401 kts 336°
2026-04-25 09:44 43.04556 13.80999 27948 ft 405 kts 336°
2026-04-25 09:45 43.07176 13.79372 28539 ft 408 kts 336°
2026-04-25 09:45 43.09789 13.77749 29092 ft 412 kts 336°
2026-04-25 09:45 43.12445 13.76097 29639 ft 416 kts 336°
2026-04-25 09:45 43.15132 13.74423 30178 ft 419 kts 336°
2026-04-25 09:46 43.17834 13.72740 30655 ft 423 kts 336°
2026-04-25 09:46 43.20520 13.71064 31096 ft 426 kts 336°
2026-04-25 09:46 43.23299 13.69329 31519 ft 430 kts 336°
2026-04-25 09:46 43.26037 13.67617 31898 ft 434 kts 336°
2026-04-25 09:47 43.28849 13.65859 32268 ft 437 kts 336°
2026-04-25 09:47 43.31654 13.64103 32613 ft 441 kts 336°
2026-04-25 09:47 43.34522 13.62306 32944 ft 444 kts 336°
2026-04-25 09:47 43.37378 13.60512 33266 ft 447 kts 336°
2026-04-25 09:48 43.40286 13.58685 33598 ft 450 kts 336°
2026-04-25 09:48 43.43165 13.56873 33909 ft 452 kts 336°
2026-04-25 09:48 43.46101 13.55024 34193 ft 455 kts 336°
2026-04-25 09:48 43.48975 13.53212 34474 ft 457 kts 336°
2026-04-25 09:49 43.51921 13.51353 34924 ft 456 kts 335°
2026-04-25 09:49 43.54794 13.49537 35463 ft 453 kts 335°
2026-04-25 09:49 43.57619 13.47749 36051 ft 448 kts 335°
2026-04-25 09:49 43.60411 13.45791 36614 ft 444 kts 331°
2026-04-25 09:50 43.63081 13.43702 37099 ft 440 kts 331°
2026-04-25 09:50 43.65723 13.41634 37488 ft 439 kts 331°
2026-04-25 09:50 43.68435 13.39511 37851 ft 438 kts 331°
2026-04-25 09:50 43.71083 13.37436 38173 ft 437 kts 331°
2026-04-25 09:51 43.73730 13.35361 38471 ft 436 kts 331°
2026-04-25 09:51 43.76392 13.33273 38762 ft 435 kts 330°
2026-04-25 09:51 43.79065 13.31174 39012 ft 435 kts 330°
2026-04-25 09:51 43.81685 13.29116 39256 ft 435 kts 330°
2026-04-25 09:52 43.84298 13.27061 39478 ft 435 kts 330°
2026-04-25 09:52 43.86961 13.24965 39678 ft 434 kts 330°
2026-04-25 09:52 43.89589 13.22895 39881 ft 434 kts 330°
2026-04-25 09:52 43.92211 13.20827 40057 ft 434 kts 330°
2026-04-25 09:53 43.97480 13.16666 40050 ft 441 kts 330°
2026-04-25 09:53 44.02851 13.12411 40052 ft 446 kts 330°
2026-04-25 09:54 44.08280 13.08102 40050 ft 448 kts 330°
2026-04-25 09:54 44.13774 13.03732 40052 ft 448 kts 330°
2026-04-25 09:55 44.19233 12.99381 40053 ft 446 kts 330°
2026-04-25 09:55 44.24581 12.95110 40053 ft 445 kts 329°
2026-04-25 09:56 44.29956 12.90807 40050 ft 444 kts 329°
2026-04-25 09:56 44.35298 12.86527 40050 ft 444 kts 329°
2026-04-25 09:57 44.40660 12.82237 40051 ft 445 kts 329°
2026-04-25 09:57 44.46057 12.77910 40050 ft 445 kts 329°
2026-04-25 09:58 44.51402 12.73616 40051 ft 445 kts 329°
2026-04-25 09:58 44.56747 12.69306 40050 ft 444 kts 329°
2026-04-25 09:59 44.62109 12.64960 40050 ft 444 kts 329°
2026-04-25 09:59 44.67452 12.60621 40050 ft 444 kts 329°
2026-04-25 10:00 44.72790 12.56277 40050 ft 444 kts 329°
2026-04-25 10:00 44.78120 12.51930 40051 ft 444 kts 328°
2026-04-25 10:01 44.83445 12.47579 40051 ft 445 kts 328°
2026-04-25 10:01 44.88838 12.43165 40051 ft 445 kts 328°
2026-04-25 10:02 44.94200 12.38766 40050 ft 444 kts 328°
2026-04-25 10:02 44.99571 12.34351 40048 ft 444 kts 327°
2026-04-25 10:03 45.04927 12.29938 40051 ft 444 kts 327°
2026-04-25 10:03 45.10083 12.25061 40049 ft 443 kts 321°
2026-04-25 10:04 45.15017 12.19814 40051 ft 443 kts 321°
2026-04-25 10:04 45.19967 12.14548 40048 ft 443 kts 320°
2026-04-25 10:05 45.24893 12.09299 40050 ft 442 kts 321°
2026-04-25 10:05 45.29816 12.04050 40045 ft 441 kts 321°
2026-04-25 10:06 45.34715 11.98832 40040 ft 441 kts 321°
2026-04-25 10:06 45.39605 11.93611 40046 ft 441 kts 320°
2026-04-25 10:07 45.44506 11.88362 40046 ft 441 kts 320°
2026-04-25 10:07 45.49443 11.83060 40046 ft 441 kts 320°
2026-04-25 10:08 45.54320 11.77810 40049 ft 440 kts 320°
2026-04-25 10:08 45.59236 11.72506 40042 ft 440 kts 320°
2026-04-25 10:09 45.64088 11.67216 40043 ft 439 kts 318°
2026-04-25 10:09 45.68660 11.61461 40047 ft 438 kts 315°
2026-04-25 10:10 45.73226 11.55649 40050 ft 437 kts 315°
2026-04-25 10:10 45.77758 11.49872 40065 ft 436 kts 315°
2026-04-25 10:11 45.82272 11.44105 40075 ft 436 kts 315°
2026-04-25 10:11 45.86781 11.38334 40081 ft 436 kts 315°
2026-04-25 10:12 45.91302 11.32537 40082 ft 436 kts 314°
2026-04-25 10:13 45.98110 11.23784 40082 ft 436 kts 315°
2026-04-25 10:13 46.02618 11.17973 40093 ft 434 kts 315°
2026-04-25 10:14 46.07156 11.12164 40090 ft 434 kts 315°
2026-04-25 10:14 46.11696 11.06360 40096 ft 434 kts 315°
2026-04-25 10:15 46.16207 11.00507 40099 ft 434 kts 314°
2026-04-25 10:15 46.20707 10.94648 40089 ft 435 kts 314°
2026-04-25 10:16 46.25202 10.88784 40131 ft 435 kts 314°
2026-04-25 10:16 46.29668 10.82942 40137 ft 435 kts 315°
2026-04-25 10:17 46.34147 10.77072 40165 ft 434 kts 315°
2026-04-25 10:17 46.38594 10.71230 40158 ft 433 kts 315°
2026-04-25 10:18 46.43049 10.65363 40170 ft 433 kts 315°
2026-04-25 10:18 46.47492 10.59500 40172 ft 433 kts 315°
2026-04-25 10:19 46.51955 10.53595 40194 ft 432 kts 315°
2026-04-25 10:19 46.56391 10.47715 40179 ft 433 kts 315°
2026-04-25 10:20 46.60836 10.41853 40183 ft 432 kts 315°
2026-04-25 10:20 46.65614 10.36571 40185 ft 437 kts 326°
2026-04-25 10:21 46.70840 10.32057 40170 ft 437 kts 325°
2026-04-25 10:21 46.75655 10.26821 40173 ft 431 kts 312°
2026-04-25 10:22 46.79360 10.20022 40176 ft 425 kts 298°
2026-04-25 10:22 46.81853 10.12273 40160 ft 423 kts 290°
2026-04-25 10:23 46.84102 10.04390 40175 ft 422 kts 291°
2026-04-25 10:23 46.86346 9.96504 40190 ft 422 kts 290°
2026-04-25 10:24 46.88585 9.88607 40185 ft 423 kts 290°
2026-04-25 10:24 46.90818 9.80701 40206 ft 422 kts 291°
2026-04-25 10:25 46.93052 9.72764 40202 ft 423 kts 291°
2026-04-25 10:25 46.95282 9.64815 40189 ft 423 kts 291°
2026-04-25 10:26 46.97503 9.56874 40182 ft 423 kts 291°
2026-04-25 10:26 46.99716 9.48929 40155 ft 423 kts 291°
2026-04-25 10:27 47.01927 9.40974 40185 ft 423 kts 291°
2026-04-25 10:27 47.04752 9.33456 40181 ft 427 kts 303°
2026-04-25 10:28 47.08826 9.27124 40171 ft 433 kts 318°
2026-04-25 10:28 47.13929 9.22290 40171 ft 437 kts 327°
2026-04-25 10:29 47.19204 9.17845 40171 ft 437 kts 327°
2026-04-25 10:29 47.24423 9.13433 40163 ft 437 kts 327°
2026-04-25 10:30 47.29682 9.08976 40152 ft 437 kts 327°
2026-04-25 10:30 47.34964 9.04490 40146 ft 437 kts 327°
2026-04-25 10:31 47.40237 9.00006 40138 ft 437 kts 328°
2026-04-25 10:31 47.45900 8.96566 40129 ft 444 kts 342°
2026-04-25 10:32 47.52012 8.95062 40121 ft 447 kts 349°
2026-04-25 10:32 47.58168 8.93795 40122 ft 446 kts 349°
2026-04-25 10:33 47.64317 8.92525 40121 ft 445 kts 349°
2026-04-25 10:33 47.70474 8.91251 40116 ft 444 kts 349°
2026-04-25 10:34 47.76598 8.90006 40112 ft 445 kts 352°
2026-04-25 10:34 47.82832 8.90250 40116 ft 449 kts
2026-04-25 10:35 47.89062 8.91183 40115 ft 450 kts
2026-04-25 10:35 47.92180 8.91647 39897 ft 455 kts